アトラス彗星

C/2018 A3 ( ATLAS )

English version
Home page
Updated on January 23, 2020

---------------------------------------------------------------------

・ プロフィール

発見日 2018年1月10日
発見光度 18.7等
発見者 Asteroid Terrestrial-impact Last Alert System (ATLAS) search program

・ 写真集

・ 軌道要素

Epoch 2018 Dec. 28.0 TT = JDT 2458480.5
T 2019 Jan. 12.86339 TT                                 Williams
q   3.2767169            (2000.0)            P               Q
z  +0.0020064      Peri.   86.42656     -0.24776712     +0.95551874
 +/-0.0000003      Node   194.27956     +0.40380092     +0.25195801
e   0.9934255      Incl.  139.56198     +0.88065673     +0.15330065
From 1398 observations 2018 Jan. 10-2020 Jan. 1, mean residual 0".5.

・ 星図

・ 光度変化

        m1 = 8.0 + 5 logΔ + 10.0 log r

---------------------------------------------------------------------

軌道要素はM.P.E.C. 2020-A105に掲載されたものです。
星図はステラナビゲータ Ver.10 (アストロアーツ) で作成したものです。
光度グラフはComet for Windowsで作成したものです。

---------------------------------------------------------------------

Copyright(C) Seiichi Yoshida (comet@aerith.net). All rights reserved.